Regional Weather Roundup
Issued by NWS Northern Indiana

Home | Current Version | Previous Version | Graphics & Text | Print | Product List | Glossary On
Versions: 1 2 3 4 5 6 7 8 9 10 11 12 13 14 15 16 17 18 19 20 21 22 23 24 25 26 27 28 29 30 31 32 33 34 35 36 37 38 39 40 41 42 43 44 45 46 47 48 49 50
000
ASUS43 KIWX 012310
RWRIWX

KIWX WEATHER ROUNDUP
NATIONAL WEATHER SERVICE NORTHERN INDIANA
700 PM EDT WED JUL 01 2015

NOTE: "FAIR" INDICATES FEW OR NO CLOUDS BELOW 12,000 FEET WITH NO
SIGNIFICANT WEATHER AND/OR OBSTRUCTIONS TO VISIBILITY.

* THESE STATIONS ARE NOT UNDER NWS QUALITY CONTROL. THEY ALSO MAY NOT
  REPORT WEATHER SUCH AS PRECIPITATION OR FOG.

INZ001>027-020000-
NORTHERN INDIANA

CITY           SKY/WX    TMP DP  RH WIND       PRES   REMARKS
GARY*          PTSUNNY   63  54  72 NE9       29.98R
VALPARAISO     MOSUNNY   63  50  62 N8        29.97R
MICHIGAN CITY* PTSUNNY   59  50  72 N8        29.98R
LAPORTE*       MOSUNNY   62  52  69 N9        29.98R
KNOX*          MOSUNNY   64  50  59 N9        29.95R
SOUTH BEND     MOSUNNY   63  51  65 NW10      29.96R
ELKHART*       MOSUNNY   64  50  59 NW8       29.95S
GOSHEN         SUNNY     66  52  60 NW8       29.93R
MONTICELLO*    CLOUDY    70  61  72 N10       29.92R
LOGANSPORT*    MOSUNNY   70  55  60 N9        29.93R
ROCHESTER*     MOSUNNY   70  59  68 NW9       29.93S
WARSAW*          N/A     68  54  60 NW7       29.93S
ANGOLA*        SUNNY     72  64  78 W6        29.92R
FORT WAYNE     PTSUNNY   73  57  57 NW8       29.91F
HUNTINGTON*    MOSUNNY   72  58  60 N7        29.91S
PERU/GRISSOM   PTSUNNY   72  61  67 N8        29.91S
MARION*        PTSUNNY   73  59  62 NW5       29.92R

$$
INZ028>050-020000-
CENTRAL INDIANA

CITY           SKY/WX    TMP DP  RH WIND       PRES   REMARKS
LAFAYETTE      PTSUNNY   72  62  71 N9        29.90S
KOKOMO*        PTSUNNY   73  61  64 N7        29.91R
MUNCIE*        PTSUNNY   74  61  63 N5        29.91S
INDIANAPOLIS   CLOUDY    75  61  61 NW5       29.88S

$$
MIZ043>046-050>051-056>058-064>065-071>073-077>080-020000-
SOUTHWEST LOWER MICHIGAN

CITY           SKY/WX    TMP DP  RH WIND       PRES   REMARKS
BATTLE CREEK   PTSUNNY   67  53  61 NW10      29.94R
BENTON HARBOR  PTSUNNY   58  51  78 VRB7      29.96F
COLDWATER*     PTSUNNY   67  51  55 W6        29.92S
HILLSDALE*     MOSUNNY   69  51  52 W6        29.92S
HOLLAND        CLOUDY    60  52  74 NW7       29.96F
GRAND RAPIDS   PTSUNNY   64  51  62 N7        29.94R
KALAMAZOO      PTSUNNY   64  52  64 NW10      29.95R
STURGIS*       MOSUNNY   66  50  55 W6        29.92S
THREE RIVERS*  FAIR      62  52  67 NW10      29.94R

$$
OHZ001>008-015>018-024>025-020000-
NORTHWEST OHIO

CITY           SKY/WX    TMP DP  RH WIND       PRES   REMARKS
DEFIANCE       SUNNY     74  55  51 NW8       29.90S
FINDLAY        SUNNY     75  56  51 W7        29.89S
TOLEDO EXPRESS MOSUNNY   72  55  55 NW6       29.89S
TOLEDO METCALF MOSUNNY   73  55  53 NW8       29.90S
LIMA           MOSUNNY   73  58  59 NW6       29.90S

$$
AND FOR LAKE MICHIGAN COASTAL AND OPEN LAKE BUOY OBSERVATIONS

STATION/POSITION TEMP    WIND        PRES    VSBY  WAVE
                 AIR SEA DIR/SP/G                  HT/PER
                 (F)     (DEG/KT/KT) (MB)    (MI)  (FT/S)
CALUMET HARBOR    58      40/  7/ 10   N/A
MICHIGAN CITY     58      20/ 11/ 13   N/A
BURNS HARBOR      60      50/ 10/ 14 1015.2F
SAINT JOSEPH      58     360/  8/ 14   N/A
4 MI NW BRIDGMAN  58 63                N/A           3/ 4
MICHIGAN CITY     59 65   50/ 10/ 14   N/A           3/ 5

$$
&&


USA.gov is the U.S. government's official web portal to all federal, state and local government web resources and services.